Weather Service Report


039 
ASUS45 KBOU 301207
RWRCO 

WEATHER ROUNDUP FOR COLORADO
NATIONAL WEATHER SERVICE DENVER/BOULDER CO
600 AM MDT TUE MAY 30 2017

NOTE: "FAIR" INDICATES FEW OR NO CLOUDS BELOW 12000 FEET WITH NO
SIGNIFICANT WEATHER AND/OR OBSTRUCTIONS TO VISIBILITY.

COZ001>005-013-030-031-301300-
...NORTHWEST COLORADO...
  
CITY           SKY/WX    TMP DP  RH WIND       PRES   REMARKS
CRAIG          FAIR      36  31  82 CALM      30.25S                  
HAYDEN         FAIR      41  30  65 E12       30.27R                  
MEEKER         FAIR      37  33  85 CALM      30.25R                  
RABBIT EARS PA FAIR      39  27  60 W5        30.44R                  
STEAMBOAT SPGS FAIR      35  32  91 CALM      30.29R                  
WALDEN           N/A     30  27  86 SE6       30.36R WCI  24          
$$

COZ006>008-011-301300-
...WEST CENTRAL VALLEYS...
  
CITY           SKY/WX    TMP DP  RH WIND       PRES   REMARKS
GRAND JUNCTION FAIR      55  32  41 SE15      30.14R                  
MONTROSE       FAIR      44  30  57 SE6       30.22R                  
EAGLE          FAIR      38  31  76 SE3       30.33R                  
RIFLE          FAIR      45  31  58 CALM      30.22R                  
DELTA          FAIR      51  31  47 CALM      30.19S                  
NUCLA          FAIR      45  27  49 E8        30.23R                  
$$

COZ017>023-064>068-301300-
...SOUTHWEST COLORADO...
  
CITY           SKY/WX    TMP DP  RH WIND       PRES   REMARKS
DURANGO        FAIR      44  29  55 CALM      30.26R                  
CORTEZ         FAIR      38  32  79 CALM      30.20R                  
PAGOSA SPRINGS FAIR      41  31  68 CALM      30.33S                  
TELLURIDE      FAIR      40  25  54 SE7       30.38S                  
WOLF CREEK PAS FAIR      34  28  80 SW9       30.56R WCI  26          
$$

COZ009-010-012-014-032>034-037-058>063-301300-
...CENTRAL COLORADO...
  
CITY           SKY/WX    TMP DP  RH WIND       PRES   REMARKS
ASPEN          FAIR      37  30  75 SW8       30.32R                  
BUENA VISTA    FAIR      40  32  74 NW6       30.37R                  
COPPER MTN     FAIR      36  27  69 W10       30.50R                  
BERTHOUD PASS  FAIR      28  18  64 NW22      30.49S WCI  15          
COTTONWOOD PAS FAIR      41  32  70 CALM      30.43R                  
GUNNISON       FAIR      34  28  79 CALM      30.37R                  
KREMMLING      FAIR      36  32  87 CALM      30.36R                  
LEADVILLE      CLOUDY    35  31  85 NE3       30.42R                  
MONARCH PASS   FAIR      32  30  93 SW14      30.61R WCI  22          
SALIDA         FAIR      40  34  77 CALM      30.43R                  
SUNLIGHT       FAIR      39  25  56 SE3       30.48R                  
WILKERSON PASS FAIR      32  32 100 W6        30.50R WCI  26          
$$

COZ069>075-301300-
...SAN LUIS VALLEY/SANGRE DE CRISTO MOUNTAINS...
  
CITY           SKY/WX    TMP DP  RH WIND       PRES   REMARKS
ALAMOSA        FAIR      40  37  89 CALM      30.33R                  
DEL NORTE      FAIR      37  29  73 W10       30.36S                  
LA VETA PASS   FAIR      37  32  81 SW20      30.53S                  
SAGUACHE       FAIR      37  28  70 NW10      30.36S                  
$$

COZ035-036-038>040-301300-
...NORTHERN COLORADO FRONT RANGE...
  
CITY           SKY/WX    TMP DP  RH WIND       PRES   REMARKS
DENVER INTL AP FAIR      47  41  80 SW8       30.21S                  
DMNS CITY PARK   N/A     48  42  79 E8        30.21R                  
AURORA         CLEAR     46  41  81 S6        30.22S                  
FRONT RANGE AP FAIR      46  43  87 SE7       30.22S                  
ERIE MUNI ARPT FAIR      42  40  95 S3        30.21S                  
BOULDER MUN AP FAIR      45  43  93 CALM      30.21R                  
CENTENNIAL     FAIR      46  41  82 S6        30.22S                  
BROOMFIELD     FAIR      48  41  76 N6        30.22R                  
FORT COLLINS   FAIR      45  41  86 N3        30.21R                  
LONGMONT       FAIR      43  41  90 CALM      30.23S FOG              
$$

COZ041-046-047-076>085-087-088-301300-
...PIKES PEAK/PALMER DIVIDE AND SOUTHERN FOOTHILLS...
  
CITY           SKY/WX    TMP DP  RH WIND       PRES   REMARKS
COLO. SPRINGS  FAIR      49  41  74 NW3       30.26F                  
A. F. ACADEMY  FAIR      39  39  99 N9        30.26F                  
SCHRIEVER AFB  FAIR      46  39  78 W7        30.26S                  
CHEYENNE MTN   FAIR      55  36  49 SW6       30.23S                  
ELLICOTT       FAIR     N/A N/A N/A NE3       30.24F                  
FALCON         FAIR      45  38  78 NW6       30.29S                  
FORT CARSON    FAIR      46  40  78 NW5       30.24S                  
LIMON          FAIR      39  39 100 N6        30.23S                  
MONUMENT HILL  FAIR      41  37  87 SW8       30.29S                  
CANON CITY     NOT AVBL                                               
WALSENBURG     FAIR      46  43  87 W3        30.26S                  
TRINIDAD       FAIR      49  43  80 SW9       30.25S                  
$$

COZ042>045-048>051-090-091-301300-
...NORTHEAST COLORADO...
  
CITY           SKY/WX    TMP DP  RH WIND       PRES   REMARKS
GREELEY ARPT   FAIR      43  40  89 N5        30.21R                  
AKRON          FAIR      49  41  74 SW12      30.19S                  
BURLINGTON     FAIR      47  45  93 W10       30.18S                  
WRAY           FAIR      46  43  87 W6        30.16S                  
YUMA           FAIR      45  41  87 W6        30.17S                  
STERLING       NOT AVBL                                               
HOLYOKE        NOT AVBL                                               
FORT MORGAN    FAIR      41  40  94 W6        30.20S                  
$$

COZ086-089-092>099-301300-
...SOUTHEAST COLORADO...
  
CITY           SKY/WX    TMP DP  RH WIND       PRES   REMARKS
PUEBLO         FAIR      46  42  86 NW3       30.20F                  
LA JUNTA       FAIR      49  46  90 NW3       30.19S                  
LAMAR          FAIR      48  46  93 MISG      30.16S                  
SPRINGFIELD      N/A     46  45  96 W5        30.20S                  
$$
  

Return to Home page


Western Regional Climate Center, wrcc@dri.edu